Location: Most
(50.5133°N, 13.6207°E)
Time: 14:46:50
(UTC+02:00)

Tiangong - Pass Details

Date: 03 October 2021
Orbit: 382 x 384 km, 41.5° (Epoch: 20 October)

Event Time Altitude Azimuth Distance (km) Brightness Sun altitude
Exits shadow 05:27:47 16° 182° (S) 1,090 3.2 -16.8°
Maximum altitude 05:27:47 16° 182° (S) 1,090 3.2 -16.8°
Drops below altitude 10° 05:29:50 10° 142° (SE) 1,396 4.2 -16.5°
Sets 05:32:25 0° 119° (ESE) 2,247 5.7 -16.1°
